Regional Weather Roundup
Issued by NWS

Home | Current Version | Previous Version | Text Only | Print | Product List | Glossary Off
Versions: 1 2 3 4 5 6 7 8 9 10 11 12 13 14 15 16 17 18 19 20 21 22 23 24 25 26 27 28 29 30 31 32 33 34 35 36 37 38 39 40 41 42 43 44 45 46 47 48 49 50

000
ASUS43 KBIS 170902
RWRND

NORTH DAKOTA REGIONAL WEATHER ROUNDUP
NATIONAL WEATHER SERVICE BISMARCK ND
300 AM CST TUE JAN 17 2017

NOTE: "FAIR" INDICATES FEW OR NO CLOUDS BELOW 12,000 FEET WITH NO
SIGNIFICANT WEATHER AND/OR OBSTRUCTIONS TO VISIBILITY.


NDZ001>003-009>011-017-171000-
NORTHWEST NORTH DAKOTA

CITY           SKY/WX    TMP DP  RH WIND       PRES   REMARKS
WILLISTON      FAIR       7   5  91 SW6       29.94F WCI  -3
MINOT          FAIR      17  12  80 S8        29.94F WCI   7
$$

NDZ018>021-031>035-040>046-171000-
SOUTHWEST NORTH DAKOTA

CITY           SKY/WX    TMP DP  RH WIND       PRES   REMARKS
BISMARCK       FAIR       8   4  83 CALM      30.02F
DICKINSON      FAIR      15   6  67 SW7       29.94F WCI   5
GARRISON         N/A      8   5  87 CALM      29.96F
HETTINGER ARPT CLOUDY     8   2  76 CALM      29.99F
$$

NDZ004>008-012>016-024-026-027-054-171000-
NORTHEAST NORTH DAKOTA

CITY           SKY/WX    TMP DP  RH WIND       PRES   REMARKS
GRAND FORKS    CLOUDY     0  -4  83 SW6       29.99F WCI -12
GRND FRKS AFB  CLOUDY     3  -1  83 SW5       29.98F WCI  -7
DEVILS LAKE    FAIR       5   3  91 W7        29.96F WCI  -7
$$

NDZ022-023-025-028>030-036>039-047>053-171000-
SOUTHEAST NORTH DAKOTA

CITY           SKY/WX    TMP DP  RH WIND       PRES   REMARKS
FARGO          CLOUDY     4   0  83 S6        30.01F WCI  -7
JAMESTOWN      FAIR      10   7  87 SW3       29.97S
$$





USA.gov is the U.S. government's official web portal to all federal, state and local government web resources and services.